Location: Jackson Park
(37.2862°N, 79.9123°W)
Time: 02:19:29
(UTC+00:00)

Tiros 1 - All Passes

Search period start: 14 May 2026 00:00
Search period end: 24 May 2026 00:00
Orbit: 618 x 648 km, 48.4° (Epoch: 13 May)

Date Brightness Start Highest point End Pass type
(mag) Time Alt. Az. Time Alt. Az. Time Alt. Az.
14 May - 03:37:04 10° S 03:40:31 21° SE 03:43:57 10° E night (unlit)
14 May - 05:17:26 10° WSW 05:22:02 71° NNW 05:26:37 10° NE visible
14 May - 07:00:44 10° WNW 07:04:30 24° NNW 07:08:15 10° NE visible
14 May - 08:44:03 10° NW 08:47:32 21° N 08:51:00 10° ENE visible
14 May - 10:25:53 10° NW 10:30:16 44° NNE 10:34:37 10° E daylight
14 May - 12:07:53 10° WNW 12:12:05 37° SW 12:16:16 10° SSE daylight
15 May - 03:57:21 10° SSW 04:01:45 45° SE 04:06:09 10° ENE night (unlit)
15 May - 05:39:21 10° W 05:43:41 39° NNW 05:48:01 10° NE visible
15 May - 07:23:03 10° NW 07:26:29 20° N 07:29:55 10° NE visible
15 May - 09:05:40 10° NW 09:09:30 26° NNE 09:13:19 10° ENE visible
15 May - 10:47:18 10° NW 10:51:53 82° NE 10:56:25 10° ESE daylight
15 May - 12:30:22 10° W 12:33:17 17° SW 12:36:12 10° S daylight
16 May - 02:38:55 10° S 02:41:47 16° SE 02:44:37 10° E night (unlit)
16 May - 04:18:32 10° SW 04:23:11 86° NNW 04:27:47 10° NE visible
16 May - 06:01:36 10° WNW 06:05:31 27° NNW 06:09:25 10° NE visible
16 May - 07:45:06 10° NW 07:48:31 20° N 07:51:56 10° NE visible
16 May - 09:27:04 10° NW 09:31:21 38° NNE 09:35:35 10° E visible
16 May - 11:08:55 10° WNW 11:13:18 48° SW 11:17:39 10° SSE daylight
17 May - 02:58:44 10° SSW 03:02:58 35° SE 03:07:10 10° ENE night (unlit)
17 May - 04:40:18 10° WSW 04:44:47 46° NNW 04:49:13 10° NE visible
17 May - 06:23:56 10° WNW 06:27:28 21° N 06:31:00 10° NE visible
17 May - 08:06:47 10° NW 08:10:31 24° NNE 08:14:13 10° ENE visible
17 May - 09:48:28 10° NW 09:53:01 67° NNE 09:57:31 10° ESE daylight
17 May - 11:31:04 10° W 11:34:33 22° SW 11:38:01 10° S daylight
18 May - 01:41:06 10° SSE 01:43:02 12° SE 01:44:58 10° ESE night (unlit)
18 May - 03:19:41 10° SW 03:24:19 77° SE 03:28:56 10° ENE visible
18 May - 05:02:28 10° W 05:06:33 30° NNW 05:10:35 10° NE visible
18 May - 06:46:06 10° NW 06:49:30 20° N 06:52:54 10° NE visible
18 May - 08:28:15 10° NW 08:32:24 33° NNE 08:36:31 10° E visible
18 May - 10:10:00 10° WNW 10:14:30 61° SW 10:18:58 10° SE daylight
19 May - 02:00:13 10° SSW 02:04:11 28° SE 02:08:08 10° ENE visible
19 May - 03:41:17 10° WSW 03:45:52 56° NNW 03:50:25 10° NE visible
19 May - 05:24:49 10° WNW 05:28:28 22° N 05:32:06 10° NE visible
19 May - 07:07:54 10° NW 07:11:31 22° N 07:15:07 10° ENE visible
19 May - 08:49:38 10° NW 08:54:08 55° NNE 08:58:35 10° ESE visible
19 May - 10:31:56 10° WNW 10:35:48 28° SW 10:39:39 10° SSE daylight
20 May - 02:20:54 10° SW 02:25:29 61° SE 02:30:03 10° ENE visible
20 May - 04:03:22 10° W 04:07:35 33° NNW 04:11:46 10° NE visible
20 May - 05:47:03 10° NW 05:50:28 20° N 05:53:54 10° NE visible
20 May - 07:29:25 10° NW 07:33:26 29° NNE 07:37:27 10° E visible
20 May - 09:11:06 10° WNW 09:15:40 77° SW 09:20:12 10° SE visible
20 May - 10:55:10 10° WSW 10:56:55 12° SW 10:58:41 10° SSW daylight
21 May - 01:01:48 10° S 01:05:24 22° SE 01:08:59 10° E visible
21 May - 02:42:19 10° WSW 02:46:57 68° NNW 02:51:35 10° NE visible
21 May - 04:25:41 10° WNW 04:29:28 24° NNW 04:33:13 10° NE visible
21 May - 06:08:58 10° NW 06:12:30 21° N 06:16:01 10° ENE visible
21 May - 07:50:48 10° NW 07:55:14 46° NNE 07:59:36 10° ESE visible
21 May - 09:32:52 10° WNW 09:37:01 35° SW 09:41:09 10° SSE visible
22 May - 01:22:10 10° SSW 01:26:39 48° SE 01:31:07 10° ENE visible
22 May - 03:04:16 10° W 03:08:38 38° NNW 03:12:58 10° NE visible
22 May - 04:47:58 10° NW 04:51:27 20° N 04:54:55 10° NE visible
22 May - 06:30:34 10° NW 06:34:28 26° NNE 06:38:21 10° ENE visible
22 May - 08:12:13 10° NW 08:16:49 86° NE 08:21:23 10° SE visible
22 May - 09:55:26 10° W 09:58:12 16° SW 10:00:56 10° SSW daylight
23 May - 00:03:34 10° S 00:06:39 17° SE 00:09:43 10° E daylight
23 May - 01:43:24 10° WSW 01:48:05 83° NW 01:52:44 10° NE visible
23 May - 03:26:32 10° WNW 03:30:28 26° NNW 03:34:23 10° NE visible
23 May - 05:10:00 10° NW 05:13:29 21° N 05:16:57 10° NE visible
23 May - 06:51:58 10° NW 06:56:18 39° NNE 07:00:35 10° E visible
23 May - 08:33:52 10° WNW 08:38:14 45° SW 08:42:33 10° SSE visible
